WetterOnline ( http://www.wetteronline.de )

Wetter aktuell Kassel

Aktuelles Wetter: Warburg (237m)

6-stündlich | Neueste Meldungen
Ortszeit Temperatur Wetter
Sa, 19.01. 7:00 -6.9° C bedeckt
Sa, 19.01. 1:00 -5.9° C bewölkt
Fr, 18.01. 19:00 -1.8° C wolkig
Fr, 18.01. 13:00 1.8° C leicht bewölkt
Fr, 18.01. 7:00 -2.8° C wolkenlos
Fr, 18.01. 1:00 -0.1° C leichter Schneefall
Do, 17.01. 19:00 0.5° C Schneefall
Do, 17.01. 13:00 6.0° C bewölkt
Ortszeit Temperatur Wetter
Sa, 19.01. 10:30 -4.6° C bedeckt
Sa, 19.01. 10:20 -4.6° C bedeckt
Sa, 19.01. 10:10 -4.7° C bedeckt
Sa, 19.01. 10:00 -5.3° C bedeckt
Sa, 19.01. 9:50 -5.3° C bedeckt
Sa, 19.01. 9:40 -5.5° C bedeckt
Sa, 19.01. 9:30 -6.0° C bedeckt
Sa, 19.01. 9:00 -6.5° C bedeckt
Sa, 19.01. 8:30 -7.0° C bedeckt
Sa, 19.01. 8:00 -7.0° C bedeckt
Sa, 19.01. 7:30 -7.0° C bedeckt
Ortszeit Relative Feuchte Sichtweite
Sa, 19.01. 7:00 93% 9 km
Sa, 19.01. 1:00 93% 10 km
Fr, 18.01. 19:00 83% 35 km
Fr, 18.01. 13:00 66% 25 km
Fr, 18.01. 7:00 91% 19 km
Fr, 18.01. 1:00 91% 25 km
Do, 17.01. 19:00 94% 2.0 km
Do, 17.01. 13:00 65% 70 km
Ortszeit Relative Feuchte Sichtweite
Sa, 19.01. 10:30 84% 16 km
Sa, 19.01. 10:20 84% -
Sa, 19.01. 10:10 85% -
Sa, 19.01. 10:00 89% 13 km
Sa, 19.01. 9:50 89% -
Sa, 19.01. 9:40 92% -
Sa, 19.01. 9:30 91% 14 km
Sa, 19.01. 9:00 94% 12 km
Sa, 19.01. 8:30 94% 10 km
Sa, 19.01. 8:00 93% 13 km
Sa, 19.01. 7:30 94% 11 km
Ortszeit Niederschlagsmenge Niederschlagsart
Sa, 19.01. 7:00 0.0 l/m2 in 12 Std. -
Sa, 19.01. 1:00 0.0 l/m2 in 6 Std. -
Fr, 18.01. 19:00 0.0 l/m2 in 12 Std. -
Fr, 18.01. 13:00 0.0 l/m2 in 6 Std. -
Fr, 18.01. 7:00 0.7 l/m2 in 12 Std. Schnee, Regen
Fr, 18.01. 1:00 0.6 l/m2 in 6 Std. Schnee, Regen
Do, 17.01. 19:00 2 l/m2 in 12 Std. Schnee, Regen
Do, 17.01. 13:00 0.2 l/m2 in 6 Std. Regen
Ortszeit Niederschlagsmenge Niederschlagsart
Sa, 19.01. 10:30 0.0 l/m2 in 1 Std. -
Sa, 19.01. 10:20 keine Meldung -
Sa, 19.01. 10:10 keine Meldung -
Sa, 19.01. 10:00 0.0 l/m2 in 1 Std. -
Sa, 19.01. 9:50 keine Meldung -
Sa, 19.01. 9:40 keine Meldung -
Sa, 19.01. 9:30 0.0 l/m2 in 1 Std. -
Sa, 19.01. 9:00 0.0 l/m2 in 1 Std. -
Sa, 19.01. 8:30 0.0 l/m2 in 1 Std. -
Sa, 19.01. 8:00 0.0 l/m2 in 1 Std. -
Sa, 19.01. 7:30 0.0 l/m2 in 1 Std. -
Ortszeit Stärke Spitze Richtung
km/h Bft. km/h Grad Sektor
Sa, 19.01. 7:00 0 0 7 - -
Sa, 19.01. 1:00 2 1 7 340° N
Fr, 18.01. 19:00 4 1 18 180° S
Fr, 18.01. 13:00 9 2 22 270° W
Fr, 18.01. 7:00 11 2 40 290° W
Fr, 18.01. 1:00 20 4 44 290° W
Do, 17.01. 19:00 22 4 44 280° W
Do, 17.01. 13:00 15 3 39 220° SW
Ortszeit Stärke Spitze Richtung
km/h Bft. km/h Grad Sektor
Sa, 19.01. 10:30 6 1 9 180° S
Sa, 19.01. 10:20 6 1 - 180° S
Sa, 19.01. 10:10 4 1 - 160° S
Sa, 19.01. 10:00 4 1 7 130° SO
Sa, 19.01. 9:50 4 1 - 130° SO
Sa, 19.01. 9:40 4 1 - 160° S
Sa, 19.01. 9:30 4 1 7 180° S
Sa, 19.01. 9:00 4 1 7 200° S
Sa, 19.01. 8:30 0 0 4 - -
Sa, 19.01. 8:00 4 1 4 190° S
Sa, 19.01. 7:30 4 1 4 130° SO
Ortszeit Untergrenze Bedeckung Gattung
total tief tief mittel hoch
Sa, 19.01. 7:00 3600 m 8/8 8/8 - - -
Sa, 19.01. 1:00 6300 m 8/8 4/8 - - -
Fr, 18.01. 19:00 9000 m 8/8 0/8 - - -
Fr, 18.01. 13:00 9000 m 4/8 0/8 - - -
Fr, 18.01. 7:00 810 m 0/8 0/8 - - -
Fr, 18.01. 1:00 480 m 7/8 7/8 - - -
Do, 17.01. 19:00 240 m 8/8 8/8 - - -
Do, 17.01. 13:00 960 m 8/8 7/8 - - -
Ortszeit Bedeckungsgrad in Achtel und Wolkenuntergrenze
Sa, 19.01. 10:30 8(4200m) 8(8400m)
Sa, 19.01. 10:20 8(4200m) 8(8400m)
Sa, 19.01. 10:10 8(4200m) 8(8400m)
Sa, 19.01. 10:00 8(4200m) 8(8100m)
Sa, 19.01. 9:50 8(4200m) 8(8100m)
Sa, 19.01. 9:40 8(4200m) 8(8100m)
Sa, 19.01. 9:30 6(3900m) 8(4500m) 8(6000m)
Sa, 19.01. 9:00 8(3900m) 8(6300m) 8(6900m)
Sa, 19.01. 8:30 8(3600m) 8(7800m) 8(8100m)
Sa, 19.01. 8:00 8(3900m) 8(8100m)
Sa, 19.01. 7:30 8(3600m)
Ortszeit Luftdruck NN (hPa) Tendenz (hPa in 3 Std.)
Sa, 19.01. 7:00 1021 - 0,8
Sa, 19.01. 1:00 1022 + 0,1
Fr, 18.01. 19:00 1022 + 0,6
Fr, 18.01. 13:00 1021 + 0,7
Fr, 18.01. 7:00 1018 + 2,7
Fr, 18.01. 1:00 1011 + 3,1
Do, 17.01. 19:00 1005 + 3,6
Do, 17.01. 13:00 1000 - 1,5
Ortszeit Luftdruck NN (hPa) Tendenz (hPa in 3 Std.)
Sa, 19.01. 10:30 1021 + 0,3
Sa, 19.01. 10:20 1021 keine Meldung
Sa, 19.01. 10:10 1021 keine Meldung
Sa, 19.01. 10:00 1021 + 0,4
Sa, 19.01. 9:50 1021 keine Meldung
Sa, 19.01. 9:40 1021 keine Meldung
Sa, 19.01. 9:30 1021 + 0,1
Sa, 19.01. 9:00 1021 - 0,3
Sa, 19.01. 8:30 1021 - 0,4
Sa, 19.01. 8:00 1021 - 0,5
Sa, 19.01. 7:30 1021 - 0,7
Ortszeit Schneehöhe (cm)
Sa, 19.01. 7:00 0
Sa, 19.01. 1:00 0
Fr, 18.01. 19:00 0
Fr, 18.01. 13:00 0
Fr, 18.01. 7:00 0
Fr, 18.01. 1:00 0
Do, 17.01. 19:00 0
Do, 17.01. 13:00 0
Ortszeit Schneehöhe (cm)
Sa, 19.01. 10:30 0
Sa, 19.01. 10:20 0
Sa, 19.01. 10:10 0
Sa, 19.01. 10:00 0
Sa, 19.01. 9:50 0
Sa, 19.01. 9:40 0
Sa, 19.01. 9:30 0
Sa, 19.01. 9:00 0
Sa, 19.01. 8:30 0
Sa, 19.01. 8:00 0
Sa, 19.01. 7:30 0
Link zu dieser Seite / Seite empfehlen

Das Wetter in ...